Regional Weather Roundup
Issued by NWS

Home | Current Version | Previous Version | Text Only | Print | Product List | Glossary Off
Versions: 1 2 3 4 5 6 7 8 9 10 11 12 13 14 15 16 17 18 19 20 21 22 23 24 25 26 27 28 29 30 31 32 33 34 35 36 37 38 39 40 41 42 43 44 45 46 47 48 49 50

622
ASUS43 KTOP 261759
RWRKS

WEATHER ROUNDUP FOR KANSAS
NATIONAL WEATHER SERVICE GOODLAND KS
100 PM CDT FRI MAY 26 2017

NOTE:  "FAIR" INDICATES FEW OR NO CLOUDS BELOW 12,000 FEET WITH NO
SIGNIFICANT WEATHER AND/OR OBSTRUCTIONS TO VISIBILITY.

KSZ001>006-013>018-027>032-041>047-261900-
NORTHWEST KANSAS

CITY           SKY/WX    TMP DP  RH WIND       PRES   REMARKS
GOODLAND       SUNNY     65  48  54 VRB5      29.95S
6HR MIN TEMP:  54; 6HR MAX TEMP:  66; 6HR PCP: TRACE;

HAYS           SUNNY     73  56  54 NE14      29.87F
HILL CITY      SUNNY     73  51  46 NE14      29.90S
6HR MIN TEMP:  59; 6HR MAX TEMP:  73;

RUSSELL        SUNNY     74  58  57 N14       29.85S
6HR MIN TEMP:  56; 6HR MAX TEMP:  74;

$$

KSZ061>065-074>080-084>089-261900-
SOUTHWEST KANSAS

CITY           SKY/WX    TMP DP  RH WIND       PRES   REMARKS
DODGE CITY     SUNNY     77  57  50 NE13G23   29.88R
6HR MIN TEMP:  54; 6HR MAX TEMP:  77;

ELKHART          N/A     76  46  34 NE7         N/A
GARDEN CITY    SUNNY     75  54  47 NE15G23   29.89S
6HR MIN TEMP:  54; 6HR MAX TEMP:  75;

GREAT BEND     SUNNY     74  60  61 N15       29.85R
LIBERAL        SUNNY     80  52  37 NE13      29.89F
$$

KSZ066>073-081>083-090>101-261900-
SOUTHEAST KANSAS

CITY           SKY/WX    TMP DP  RH WIND       PRES   REMARKS
CHANUTE        MOSUNNY   83  66  56 VRB7      29.75R
6HR MIN TEMP:  65; 6HR MAX TEMP:  83;

COFFEYVILLE    CLOUDY    82  69  64 N3        29.74R
6HR MIN TEMP:  65; 6HR MAX TEMP:  84;

HUTCHINSON     SUNNY     81  61  50 N13       29.80R
6HR MIN TEMP:  62; 6HR MAX TEMP:  81;

MEDICINE LODGE   N/A     82  56  40 N12G23    29.80R
NEWTON         SUNNY     80  62  54 N14       29.79S
PARSONS        PTSUNNY   83  66  56 N5        29.75R
6HR MIN TEMP:  66; 6HR MAX TEMP:  84;

WICHITA INTL   SUNNY     82  62  50 NE13G21   29.77R
6HR MIN TEMP:  64; 6HR MAX TEMP:  83;

WICHITA JABRA  SUNNY     83  62  49 N10G21    29.78R
6HR MIN TEMP:  61; 6HR MAX TEMP:  84;

WINFIELD       SUNNY     83  64  52 NE13      29.77R
6HR MIN TEMP:  65; 6HR MAX TEMP:  83;

$$

KSZ007>012-019>026-033>040-048>060-102>105-261900-
NORTHEAST KANSAS

CITY           SKY/WX    TMP DP  RH WIND       PRES   REMARKS
CONCORDIA      SUNNY     76  59  55 N8        29.83R
6HR MIN TEMP:  59; 6HR MAX TEMP:  76;

EMPORIA        SUNNY     80  63  55 N9        29.76R
6HR MIN TEMP:  61; 6HR MAX TEMP:  80;

LAWRENCE       SUNNY     81  66  60 N6        29.74S
6HR MIN TEMP:  63; 6HR MAX TEMP:  81;

MANHATTAN      MOSUNNY   80  66  62 N10       29.78R
6HR MIN TEMP:  60; 6HR MAX TEMP:  81;

OLATHE IND     PTSUNNY   78  64  61 N6        29.76R
6HR MIN TEMP:  64; 6HR MAX TEMP:  79;

OLATHE EXE     PTSUNNY   78  63  59 VRB3      29.76R
6HR MIN TEMP:  63; 6HR MAX TEMP:  78;

SALINA         SUNNY     80  63  55 N10G20    29.81R
6HR MIN TEMP:  61; 6HR MAX TEMP:  80;

TOPEKA BILLARD MOSUNNY   82  68  62 N9        29.74S
6HR MIN TEMP:  61; 6HR MAX TEMP:  82;

TOPEKA FORBES  SUNNY     82  66  58 N8        29.75S
6HR MIN TEMP:  63; 6HR MAX TEMP:  82;

$$




USA.gov is the U.S. government's official web portal to all federal, state and local government web resources and services.